"TOA5","AWS1","CR1000","7964","CR1000.Std.14","CPU:AWS1_114.CR1","64363","TBL110"
"TIMESTAMP","RECORD","Wind_spd_WVc(1)","Wind_spd_WVc(2)","Air_Temp_Avg","Humidity_Avg","SW_upper_Wm2_Avg","Rain_Tot","Press_Avg","Issui_Tot","Depth_cm","SR50A_Raw","Quality","Ground_Temp_Avg(1)","Ground_Temp_Avg(2)","SW_lower_Wm2_Avg","Albedo_Avg","SWC_per(1)","SWC_per(2)","Period(1)","Period(2)"
"TS","RN","","","","","","","","","","","","","","","","","","",""
"","","WVc","WVc","Avg","Avg","Avg","Tot","Avg","Tot","Smp","Smp","Smp","Avg","Avg","Avg","Avg","Smp","Smp","Smp","Smp"
"2016-02-15 00:00:00",222541,0.474,144.5,1.246,100,0,0,852.852,0,20.7,2.966,188,0.904,1.353,0,0,54.52,63.51,34.4,36.47
"2016-02-15 00:10:00",222542,0.365,153.2,1.179,100,0,0,852.7682,0,20.74,2.966,187,0.907,1.351,0.05685929,0,54.52,63.45,34.4,36.46
"2016-02-15 00:20:00",222543,0.359,110.8,1.165,100,0,0,852.7852,0,20.79,2.966,187,0.888,1.371,0.1326739,0,54.52,63.39,34.4,36.44
"2016-02-15 00:30:00",222544,0.174,96.2,1.123,100,0,0,852.5744,0,20.61,2.968,187,0.893,1.359,0,0,54.52,63.39,34.4,36.44
"2016-02-15 00:40:00",222545,0.229,53.9,1.013,100,0,0,852.7205,0,20.6,2.969,189,0.91,1.364,0,0,54.52,63.32,34.4,36.43
"2016-02-15 00:50:00",222546,0.01,43.23,0.952,100,0,0,852.6255,0,20.68,2.968,192,0.912,1.367,0,0,54.46,63.26,34.38,36.42
"2016-02-15 01:00:00",222547,0.207,55.07,0.849,100,0,0,852.6982,0,20.62,2.969,192,0.902,1.369,0,0,54.46,63.32,34.38,36.43
"2016-02-15 01:10:00",222548,0.257,57.46,0.753,100,0,0,852.8022,0,20.59,2.97,192,0.91,1.369,0,0,54.46,63.2,34.38,36.4
"2016-02-15 01:20:00",222549,0.269,342.8,0.578,100,0,0,852.8339,0,20.65,2.972,192,0.901,1.369,0.01895418,0,54.46,63.2,34.38,36.4
"2016-02-15 01:30:00",222550,0.173,260.8,0.163,100,0,0,853.0222,0,20.3,2.976,177,0.905,1.369,0,0,54.46,63.14,34.38,36.39
"2016-02-15 01:40:00",222551,0,0,0.042,100,0,0,853.1055,1,19.51,2.985,198,0.914,1.369,0,0,54.41,63.08,34.37,36.38
"2016-02-15 01:50:00",222552,0.121,233.8,-0.087,100,0,0,853.1342,0,18.89,2.991,202,0.92,1.369,0,0,54.41,63.08,34.37,36.38
"2016-02-15 02:00:00",222553,0.261,285.8,-0.252,100,0,0,853.291,0.5,18.58,2.996,233,0.931,1.369,0,0,54.46,63.02,34.38,36.36
"2016-02-15 02:10:00",222554,0,0,-0.283,100,0,0,853.0868,0,20.56,2.976,237,0.934,1.369,0,0,54.41,63.02,34.37,36.36
"2016-02-15 02:20:00",222555,0,0,-0.312,100,0,0,853.0637,0.5,18.13,3,251,0.936,1.374,0,0,54.41,63.02,34.37,36.36
"2016-02-15 02:30:00",222556,0.101,358.8,-0.418,100,0.0589744,0,852.8572,0,18.72,2.996,226,0.936,1.372,0,0,54.41,62.96,34.37,36.35
"2016-02-15 02:40:00",222557,0.344,325.9,-0.555,100,0.1533334,0,852.7792,0,21.19,2.972,318,0.936,1.381,0,0,54.41,62.96,34.37,36.35
"2016-02-15 02:50:00",222558,0.433,330.4,-0.75,100,0.2988036,0,852.914,0,318,0,0,0.936,1.382,0,0,54.35,62.96,34.36,36.35
"2016-02-15 03:00:00",222559,0.515,312.5,-0.92,100,0.2673506,0,853.1058,0.5,20.16,2.984,309,0.936,1.395,0.003790837,0,54.35,62.9,34.36,36.34
"2016-02-15 03:10:00",222560,0.561,314.1,-1.185,100,0.3774362,0,852.8572,0,22.19,2.965,202,0.933,1.406,0,0,54.35,62.9,34.36,36.34
"2016-02-15 03:20:00",222561,0.721,311.1,-1.264,100,0.05504278,0,852.7497,0,22.25,2.964,189,0.928,1.407,0,0,54.29,62.84,34.34,36.32
"2016-02-15 03:30:00",222562,0.219,132.9,-1.184,100,0,0,852.5811,0,22.19,2.965,199,0.906,1.405,0,0,54.35,62.84,34.36,36.32
"2016-02-15 03:40:00",222563,0.12,319.9,-1.253,100,0,0,852.5327,0,22.24,2.965,198,0.888,1.403,0.01516335,0,54.29,62.84,34.34,36.32
"2016-02-15 03:50:00",222564,0.394,345.4,-1.383,100,0,0,852.5748,0,22.27,2.965,200,0.858,1.41,0,0,54.35,62.84,34.36,36.32
"2016-02-15 04:00:00",222565,0.105,90.3,-1.312,100,0,0,852.3747,0,22.24,2.965,208,0.851,1.41,0.01516335,0,54.29,62.84,34.34,36.32
"2016-02-15 04:10:00",222566,0.344,322.6,-1.409,100,0,0,852.2293,0,22.09,2.967,228,0.854,1.41,0,0,54.29,62.84,34.34,36.32
"2016-02-15 04:20:00",222567,0.257,344.4,-1.451,100,0,0,852.1155,0,22.63,2.962,316,0.853,1.407,0,0,54.29,62.78,34.34,36.31
"2016-02-15 04:30:00",222568,0.568,302.5,-1.534,100,0,0,852.1198,0,318,0,0,0.853,1.394,0,0,54.29,62.78,34.34,36.31
"2016-02-15 04:40:00",222569,0.44,304.4,-1.585,100,0,0,852.3199,0,21.98,2.969,201,0.858,1.384,0,0,54.24,62.78,34.33,36.31
"2016-02-15 04:50:00",222570,0.807,302.9,-1.653,100,0.09829067,0,852.3452,0,22.3,2.967,199,0.856,1.389,0.05686254,0,54.24,62.72,34.33,36.3
"2016-02-15 05:00:00",222571,0.654,311.1,-1.88,100,0.1100856,0,852.3557,0,22.42,2.966,193,0.859,1.385,0,0,54.24,62.72,34.33,36.3
"2016-02-15 05:10:00",222572,0.506,297.7,-1.88,100,0,0,852.5179,0.5,22.62,2.964,194,0.863,1.406,0.003790837,0,54.24,62.72,34.33,36.3
"2016-02-15 05:20:00",222573,0.511,337.4,-1.897,100,0.01572651,0,852.6233,0,22.79,2.963,199,0.86,1.394,0.01516335,0,54.24,62.66,34.33,36.28
"2016-02-15 05:30:00",222574,0.963,306.6,-2.033,100,0.1297437,0,852.5579,0,22.89,2.962,197,0.857,1.393,0,0,54.24,62.66,34.33,36.28
"2016-02-15 05:40:00",222575,0.374,286.9,-2.137,100,0.1218804,0,852.3704,0,22.88,2.964,197,0.859,1.371,0.05686254,0,54.18,62.66,34.32,36.28
"2016-02-15 05:50:00",222576,0.254,330.1,-2.298,100,0.02752139,0,852.3262,0,22.81,2.964,197,0.855,1.369,0,0,54.18,62.6,34.32,36.27
"2016-02-15 06:00:00",222577,0.311,319.9,-2.341,96.7,0,0,852.3283,0,22.84,2.964,196,0.854,1.369,0,0,54.18,62.6,34.32,36.27
"2016-02-15 06:10:00",222578,0.444,308.8,-2.315,94.7,0,0,852.3242,0,22.81,2.965,196,0.861,1.371,0,0,54.18,62.6,34.32,36.27
"2016-02-15 06:20:00",222579,0.816,321.8,-2.54,91.6,0,0,852.1049,0,22.9,2.965,196,0.873,1.374,0,0,54.18,62.6,34.32,36.27
"2016-02-15 06:30:00",222580,0.401,16.45,-2.545,94.2,0,0,852.1176,0,22.73,2.966,196,0.879,1.38,0.07581673,0,54.18,62.54,34.32,36.25
"2016-02-15 06:40:00",222581,0.08,329.8,-2.504,98.9,0,0,852.1935,0,22.53,2.968,198,0.876,1.378,0.5382987,0,54.18,62.54,34.32,36.25
"2016-02-15 06:50:00",222582,0,0,-2.521,100,0.2752139,0,852.185,0,22.38,2.97,198,0.866,1.372,1.971235,4.951,54.18,62.54,34.32,36.25
"2016-02-15 07:00:00",222583,0.065,321.7,-2.627,100,1.254189,0,852.1682,0,22.55,2.969,184,0.875,1.374,4.135802,3.324,54.12,62.54,34.3,36.25
"2016-02-15 07:10:00",222584,0.075,3.326,-2.631,100,4.419148,0,852.0881,0,22.85,2.966,190,0.872,1.377,12.13068,2.766,54.18,62.48,34.32,36.24
"2016-02-15 07:20:00",222585,0.029,315.8,-2.693,100,4.309062,0,851.8353,0,22.97,2.965,196,0.866,1.373,10.95173,2.544,54.12,62.48,34.3,36.24
"2016-02-15 07:30:00",222586,0.021,22.36,-2.514,100,4.049598,0,851.829,0,20.48,2.989,208,0.871,1.375,11.06551,2.733,54.12,62.48,34.3,36.24
"2016-02-15 07:40:00",222587,0.094,341.3,-2.548,100,6.086359,0,851.8669,0,20.25,2.992,234,0.879,1.39,16.66507,2.737,54.18,62.48,34.32,36.24
"2016-02-15 07:50:00",222588,0.075,327,-2.62,100,5.677422,0,852.0081,0,21.8,2.976,200,0.858,1.376,14.56858,2.563,54.12,62.42,34.3,36.23
"2016-02-15 08:00:00",222589,0.283,291.1,-2.921,100,9.373105,0,851.9575,0,22.46,2.972,200,0.855,1.377,23.21534,2.477,54.12,62.42,34.3,36.23
"2016-02-15 08:10:00",222590,0.039,327.6,-3.137,100,9.59321,0,852.0228,0,22.6,2.972,197,0.854,1.375,24.1174,2.514,54.07,62.42,34.29,36.23
"2016-02-15 08:20:00",222591,0.168,291.9,-3.284,100,8.956259,0,852.0502,0,22.9,2.97,195,0.855,1.37,21.95656,2.452,54.07,62.48,34.29,36.24
"2016-02-15 08:30:00",222592,0.214,284.6,-3.591,100,9.02309,0,852.0101,0,23.27,2.967,185,0.852,1.369,21.49785,2.383,54.12,62.48,34.3,36.24
"2016-02-15 08:40:00",222593,0.4,350.4,-3.932,100,10.6901,0,851.8269,0,23.3,2.969,186,0.857,1.369,24.9513,2.335,54.12,62.48,34.3,36.24
"2016-02-15 08:50:00",222594,0.282,319.9,-4.182,100,10.59574,0,852.0502,0.5,23.46,2.97,194,0.866,1.371,25.22045,2.38,54.07,62.36,34.29,36.21
"2016-02-15 09:00:00",222595,0.321,310.9,-4.5,100,11.68087,0,852.0754,0,23.45,2.969,189,0.883,1.378,28.93547,2.475,54.12,62.42,34.3,36.23
"2016-02-15 09:10:00",222596,0.289,313.4,-4.499,100,11.07147,0,852.0692,0,23.42,2.97,177,0.895,1.404,27.8475,2.514,54.12,62.42,34.3,36.23
"2016-02-15 09:20:00",222597,0.407,296.9,-4.702,100,10.59967,0,852.0586,0,23.23,2.974,195,0.9,1.411,25.9862,2.452,54.07,62.42,34.29,36.23
"2016-02-15 09:30:00",222598,0.34,282.6,-4.938,100,11.95608,0,852.1745,0,23.13,2.976,190,0.914,1.411,29.26528,2.448,54.07,62.42,34.29,36.23
"2016-02-15 09:40:00",222599,0.333,297.9,-5.202,100,12.52247,0,852.3262,0,23.16,2.978,177,0.92,1.413,30.37276,2.428,54.07,62.42,34.29,36.23
"2016-02-15 09:50:00",222600,0.518,322.1,-5.565,100,13.91063,0,852.4987,0,23.31,2.978,181,0.922,1.419,33.33411,2.393,54.12,62.42,34.3,36.23
"2016-02-15 10:00:00",222601,0.646,283.7,-5.786,100,21.8496,0,852.4724,0,23.59,2.976,185,0.92,1.426,54.71323,2.497,54.07,62.36,34.29,36.21
"2016-02-15 10:10:00",222602,0.575,327,-5.787,100,28.2008,0,852.4195,0,23.19,2.98,190,0.929,1.429,72.0833,2.553,54.07,62.36,34.29,36.21
"2016-02-15 10:20:00",222603,0.566,295.5,-5.728,99.2,30.15996,0,852.5998,0,23.43,2.978,178,0.91,1.447,77.59831,2.573,54.07,62.36,34.29,36.21
"2016-02-15 10:30:00",222604,0.477,7.548,-5.872,97.9,39.96501,0,852.5696,0,22.02,2.992,202,0.941,1.455,104.0638,2.599,54.07,62.36,34.29,36.21
"2016-02-15 10:40:00",222605,0.653,308,-5.822,97.4,35.59337,0,852.5978,0,23.22,2.98,187,0.964,1.463,93.90553,2.634,54.07,62.36,34.29,36.21
"2016-02-15 10:50:00",222606,0.379,282.7,-5.715,95.4,53.54717,0,852.4993,0,22.98,2.981,197,0.969,1.479,147.2674,2.748,54.07,62.36,34.29,36.21
"2016-02-15 11:00:00",222607,0.342,338,-5.535,93.8,51.0218,0,852.3041,0.5,23.01,2.979,198,0.964,1.472,143.2122,2.806,54.07,62.3,34.29,36.2
"2016-02-15 11:10:00",222608,0.269,32.97,-5.4,92.5,51.84575,0,852.1505,0,23.02,2.979,177,0.929,1.437,150.0509,2.886,54.01,62.3,34.27,36.2
"2016-02-15 11:20:00",222609,0.484,337,-5.324,93.7,61.49083,0,851.9132,0,23.17,2.977,196,0.905,1.424,178.587,2.902,54.01,62.3,34.27,36.2
"2016-02-15 11:30:00",222610,0.605,348.6,-5.564,94.2,36.91187,0,851.8407,0,21.29,2.999,230,0.899,1.406,101.9513,2.761,54.01,62.3,34.27,36.2
"2016-02-15 11:40:00",222611,0.43,297.7,-5.752,95.8,37.55416,0,851.8326,0,23.72,2.974,192,0.881,1.392,107.6423,2.866,54.01,62.24,34.27,36.19
"2016-02-15 11:50:00",222612,0.588,308.1,-5.747,95.2,36.81307,0,851.7303,0,22.61,2.987,200,0.865,1.382,107.2502,2.913,53.95,62.3,34.26,36.2
"2016-02-15 12:00:00",222613,0.258,323.3,-5.965,94.7,33.07323,0,851.5726,0,23.25,2.98,191,0.859,1.374,97.4408,2.949,54.01,62.24,34.27,36.19
"2016-02-15 12:10:00",222614,0.24,311.6,-5.749,95.3,35.99418,0,851.4288,0,23.58,2.975,186,0.863,1.374,109.6693,3.046,53.95,62.24,34.26,36.19
"2016-02-15 12:20:00",222615,0.297,357.4,-5.713,94.7,41.26248,0,851.3024,0,23.39,2.976,180,0.858,1.397,126.3336,3.057,53.95,62.24,34.26,36.19
"2016-02-15 12:30:00",222616,0.343,317.9,-5.652,94.4,35.78569,0,851.2813,0,23.71,2.974,185,0.865,1.425,107.9403,3.016,53.95,62.24,34.26,36.19
"2016-02-15 12:40:00",222617,0.548,308.5,-5.683,93.8,41.18775,0,851.1422,0,23.38,2.978,177,0.859,1.408,122.9824,2.989,53.9,62.24,34.25,36.19
"2016-02-15 12:50:00",222618,0.335,5.901,-5.871,92,37.49202,0,851.0558,0,23.61,2.975,171,0.862,1.426,111.7009,2.975,53.78,62.24,34.22,36.19
"2016-02-15 13:00:00",222619,0.493,353.3,-5.609,91.2,51.59477,0,850.9462,0,23.61,2.974,186,0.867,1.409,157.0886,3.044,53.78,62.24,34.22,36.19
"2016-02-15 13:10:00",222620,0.453,347,-5.568,91,34.7556,0,850.8788,0,23.61,2.975,185,0.877,1.412,104.5817,3.016,53.78,62.24,34.22,36.19
"2016-02-15 13:20:00",222621,0.273,19.52,-5.621,91.7,36.33219,0,851.0516,0,23.76,2.972,185,0.901,1.403,108.2209,2.978,53.78,62.18,34.22,36.17
"2016-02-15 13:30:00",222622,0.316,27.78,-5.505,92.5,28.29593,0,850.9799,0,23.69,2.973,189,0.892,1.417,82.5493,2.917,53.78,62.18,34.22,36.17
"2016-02-15 13:40:00",222623,0.359,332.7,-5.714,91.5,29.22773,0,851.0474,0,23.78,2.974,172,0.887,1.428,85.50994,2.925,53.73,62.18,34.21,36.17
"2016-02-15 13:50:00",222624,0.262,350,-5.596,93.6,28.59867,0,850.8851,0,23.81,2.972,175,0.879,1.432,84.68355,2.961,53.78,62.18,34.22,36.17
"2016-02-15 14:00:00",222625,0.088,182.9,-5.577,90.6,23.20054,0,850.8114,0,23.81,2.973,193,0.863,1.439,68.25784,2.938,53.73,62.12,34.21,36.16
"2016-02-15 14:10:00",222626,0.346,308.4,-5.641,91.3,19.3908,0,850.9378,0,23.6,2.976,186,0.865,1.425,55.49409,2.86,53.73,62.12,34.21,36.16
"2016-02-15 14:20:00",222627,0.288,282,-5.922,91.8,19.84293,0,851.1591,0,23.75,2.975,181,0.855,1.4,56.71474,2.858,53.73,62.12,34.21,36.16
"2016-02-15 14:30:00",222628,0.3,300.8,-6.038,93.4,17.51148,0,851.3361,0,24.09,2.972,190,0.857,1.378,50.85789,2.904,53.73,62.12,34.21,36.16
"2016-02-15 14:40:00",222629,0.368,281.5,-6.04,93.9,17.13404,0,851.3213,0,24.07,2.973,195,0.876,1.392,49.95188,2.915,53.73,62.12,34.21,36.16
"2016-02-15 14:50:00",222630,0.131,320.5,-6.173,92.4,17.97148,0,851.5152,0,23.84,2.976,195,0.893,1.409,53.4205,2.971,53.73,62.18,34.21,36.17
"2016-02-15 15:00:00",222631,0.47,10.11,-6.375,91.4,20.44447,0,851.5657,0,23.99,2.975,196,0.899,1.411,60.20989,2.938,53.73,62.12,34.21,36.16
"2016-02-15 15:10:00",222632,0.299,339,-5.966,91.9,36.56415,0,851.5742,0,23.6,2.976,200,0.893,1.407,112.296,3.074,53.73,62.12,34.21,36.16
"2016-02-15 15:20:00",222633,0.284,288.4,-5.766,88.8,51.3117,0,851.5742,0.5,22.17,2.989,200,0.856,1.381,153.347,2.984,53.73,62.12,34.21,36.16
"2016-02-15 15:30:00",222634,0.54,353,-5.871,88.4,25.82687,0,851.7048,0,22.31,2.991,206,0.859,1.376,74.12227,2.871,53.73,62.12,34.21,36.16
"2016-02-15 15:40:00",222635,0.418,332.7,-6.424,88.8,19.3043,0,851.671,0,23.24,2.983,193,0.862,1.386,52.58272,2.727,53.73,62.12,34.21,36.16
"2016-02-15 15:50:00",222636,0.546,346.3,-6.478,89.6,19.61883,0,851.6057,0,23.37,2.982,192,0.887,1.403,56.87774,2.899,53.67,62.06,34.19,36.15
"2016-02-15 16:00:00",222637,0.293,330.5,-6.524,90.6,15.8366,0,851.7679,0,23.29,2.983,181,0.9,1.409,47.28313,2.992,53.67,62.06,34.19,36.15
"2016-02-15 16:10:00",222638,0.34,319,-6.706,90.9,10.10822,0,851.8248,0,23.49,2.982,190,0.922,1.411,28.08632,2.782,53.67,62.12,34.19,36.16
"2016-02-15 16:20:00",222639,0.148,279,-6.734,91.5,8.681037,0,851.8965,0,23.54,2.981,194,0.931,1.411,25.66398,2.957,53.67,62.06,34.19,36.15
"2016-02-15 16:30:00",222640,0.228,329.1,-6.712,90.7,10.10822,0,852.0018,0,23.27,2.984,185,0.929,1.411,31.08488,3.08,53.67,62.12,34.19,36.16
"2016-02-15 16:40:00",222641,0.39,316.4,-6.83,87.8,12.43186,0,851.8314,0,23.26,2.985,181,0.937,1.408,37.76449,3.04,53.67,62.06,34.19,36.15
"2016-02-15 16:50:00",222642,0.24,298.6,-6.805,88.7,9.734963,0,851.8361,0,23.13,2.985,176,0.923,1.411,29.83846,3.069,53.67,62.06,34.19,36.15
"2016-02-15 17:00:00",222643,0.188,300.6,-6.802,89.2,6.507408,0,851.8983,0,23.14,2.987,181,0.927,1.396,22.83043,3.509,53.67,62.06,34.19,36.15
"2016-02-15 17:10:00",222644,0.445,316.1,-7.031,88.5,3.523206,0,851.9298,0,23.21,2.987,186,0.9,1.42,12.66307,3.586,53.67,62.06,34.19,36.15
"2016-02-15 17:20:00",222645,0.361,318.7,-7.123,89,2.288583,0,852.1398,0,23.23,2.987,189,0.916,1.452,7.912781,3.508,53.61,62.06,34.18,36.15
"2016-02-15 17:30:00",222646,0.271,326.9,-7.207,89.4,0.5544853,0,852.1237,0,23.14,2.988,185,0.952,1.436,3.298812,3.685,53.61,62.06,34.18,36.15
"2016-02-15 17:40:00",222647,0.207,329.7,-7.313,92.5,0,0,852.2448,0,23.16,2.989,173,0.926,1.447,0.7053059,0,53.67,62.06,34.19,36.15
"2016-02-15 17:50:00",222648,0.349,345.8,-7.437,95.5,0,0,852.4141,0,23.01,2.991,185,0.896,1.455,0.09480174,0,53.61,62.06,34.18,36.15
"2016-02-15 18:00:00",222649,0.525,311.8,-7.661,96,0.1927149,0,852.5751,0,23.12,2.992,190,0.911,1.458,0.007584221,0,53.61,62.06,34.18,36.15
"2016-02-15 18:10:00",222650,0.114,349.6,-7.887,97.2,0.02753074,0,852.5394,0,23.29,2.991,194,0.923,1.466,0,0,53.61,62,34.18,36.13
"2016-02-15 18:20:00",222651,0.255,332.6,-7.863,97.9,0,0,852.689,0,23.29,2.991,196,0.936,1.47,0.1327246,0,53.61,62,34.18,36.13
"2016-02-15 18:30:00",222652,0.322,324.4,-8.08,98.4,0,0,852.9209,0,23.26,2.992,186,0.938,1.485,0,0,53.61,62,34.18,3
"2016-02-15 18:30:00",222652,0.322,324.4,-8.08,98.4,0,0,852.9209,0,23.26,2.992,186,0.938,1.485,0,0,53.61,62,34.18,36.13
"2016-02-15 18:40:00",222653,0.272,316.9,-8.07,99.7,0,0,852.9209,0,23.31,2.992,190,0.938,1.484,0.1213482,0,53.61,62,34.18,36.13
"2016-02-15 18:50:00",222654,0.013,14.2,-8.03,100,0,0,853.1379,0,23.44,2.989,188,0.938,1.486,0.2199436,0,53.61,62,34.18,36.13
"2016-02-15 19:00:00",222655,0.23,330.5,-8.14,99.1,0.01179891,0,853.1738,0,23.31,2.993,195,0.938,1.483,0.06825834,0,53.61,62,34.18,36.13
"2016-02-15 19:10:00",222656,0.146,353.3,-8.25,99.4,0,0,853.3214,0,23.31,2.993,182,0.938,1.465,0.05688196,0,53.61,62,34.18,36.13
"2016-02-15 19:20:00",222657,0.194,5.881,-8.32,98.8,0,0,853.5153,0,23.19,2.994,182,0.938,1.429,0.04171343,0,53.61,62,34.18,36.13
"2016-02-15 19:30:00",222658,0.131,327.4,-8.35,98.5,0,0,853.6818,0,23.61,2.99,191,0.938,1.425,0.1061796,0,53.61,62,34.18,36.13
"2016-02-15 19:40:00",222659,0.326,12.2,-8.5,96.2,0.129788,0,853.6797,0,23.58,2.991,186,0.94,1.425,0.02275278,0,53.61,62,34.18,36.13
"2016-02-15 19:50:00",222660,0.208,293.2,-8.48,96.1,0,0,853.6965,0,23.38,2.993,195,0.939,1.415,0.05688196,0,53.56,61.94,34.17,36.12
"2016-02-15 20:00:00",222661,0.033,6.13,-8.45,95.8,0,0,853.8947,0,23.48,2.992,195,0.95,1.422,0.117556,0,53.56,61.94,34.17,36.12
"2016-02-15 20:10:00",222662,0.133,26.69,-8.55,96.9,0,0,853.9326,0,23.65,2.991,192,0.948,1.424,0.007584261,0,53.56,61.94,34.17,36.12
"2016-02-15 20:20:00",222663,0.164,311.1,-8.61,97.7,0,0,854.0801,0,23.23,2.995,177,0.96,1.417,0.1099718,0,53.56,61.94,34.17,36.12
"2016-02-15 20:30:00",222664,0.216,320,-8.59,97.6,0,0,854.1855,0,23.48,2.993,190,0.969,1.411,0.1933987,0,53.61,61.94,34.18,36.12
"2016-02-15 20:40:00",222665,0.085,324.9,-8.6,97.8,0,0,854.2276,0,23.16,2.996,187,0.966,1.429,0.08342686,0,53.56,61.94,34.17,36.12
"2016-02-15 20:50:00",222666,0.114,284,-8.62,97.7,0,0,854.2361,0,23.33,2.994,177,0.974,1.418,0.04171343,0,53.56,61.94,34.17,36.12
"2016-02-15 21:00:00",222667,0.097,73.76,-8.59,97.3,0,0,854.1896,0,23.08,2.997,187,0.979,1.376,0.02275278,0,53.56,61.94,34.17,36.12
"2016-02-15 21:10:00",222668,0.291,329.5,-8.7,95.1,0,0,854.274,0,23.38,2.995,194,0.98,1.392,0,0,53.56,61.94,34.17,36.12
"2016-02-15 21:20:00",222669,0.088,278.3,-8.86,94.6,0,0,854.4279,0,23.42,2.995,192,0.982,1.387,0,0,53.56,61.94,34.17,36.12
"2016-02-15 21:30:00",222670,0.042,136.8,-8.99,94.6,0,0,854.4173,0,23.52,2.995,196,0.982,1.384,0,0,53.5,61.88,34.15,36.11
"2016-02-15 21:40:00",222671,0.281,276.1,-9.05,93.5,0,0,854.4216,0,23.32,2.997,197,0.988,1.408,0.09480695,0,53.56,61.94,34.17,36.12
"2016-02-15 21:50:00",222672,0.149,313.1,-9.07,93.4,0,0,854.4509,0,23.41,2.996,202,0.992,1.423,0.02654606,0,53.56,61.94,34.17,36.12
"2016-02-15 22:00:00",222673,0.103,2.521,-9.01,94.8,0,0,854.4655,0,23.3,2.997,202,1.001,1.441,0.1896323,0,53.5,61.88,34.15,36.11
"2016-02-15 22:10:00",222674,0.047,311.1,-8.97,96.6,0,0,854.7061,0,23.25,2.997,204,1.008,1.459,0.2313616,0,53.5,61.88,34.15,36.11
"2016-02-15 22:20:00",222675,0.233,333.7,-8.99,97.7,0,0,854.7542,0,23.22,2.997,210,0.998,1.46,0.2237759,0,53.5,61.88,34.15,36.11
"2016-02-15 22:30:00",222676,0.221,327.7,-8.94,97.3,0,0,854.7755,0,22.95,3,206,0.997,1.474,0.2010317,0,53.5,61.88,34.15,36.11
"2016-02-15 22:40:00",222677,0.255,316.5,-9.03,98,0,0,854.9604,0,23.58,2.994,253,1.004,1.486,0.2275929,0,53.5,61.88,34.15,36.11
"2016-02-15 22:50:00",222678,0.143,340.7,-8.97,97.9,0,0,854.8839,0,23.18,2.998,280,1.017,1.495,0.2276007,0,53.5,61.88,34.15,36.11
"2016-02-15 23:00:00",222679,0.146,332.7,-9.05,97.3,0,0,854.8906,0,23.47,2.995,214,1.017,1.499,0.227604,0,53.45,61.82,34.14,36.09
"2016-02-15 23:10:00",222680,0.464,10.01,-9.04,98,0,0,854.8632,0,23.35,2.997,206,1.025,1.501,0.1213893,0,53.45,61.82,34.14,36.09
"2016-02-15 23:20:00",222681,0.179,2.985,-9.08,98.1,0.00393431,0,855.0172,0,22.79,3.002,197,1.006,1.488,0.08724879,0,53.45,61.82,34.14,36.09
"2016-02-15 23:30:00",222682,0.203,337.5,-9.1,97.1,0,0,855.0319,0,23.87,2.992,216,1.03,1.499,0.08345523,0,53.5,61.82,34.15,36.09
"2016-02-15 23:40:00",222683,0.207,8.27,-9.15,97.4,0.03934208,0,855.0319,0,22,3.011,198,1.023,1.495,0.02655327,0,53.45,61.88,34.14,36.11
"2016-02-15 23:50:00",222684,0.058,94.8,-9.13,96.9,0.0157369,0,855.0319,0,22.42,3.006,197,1.007,1.496,0.06069366,0,53.5,61.82,34.15,36.09
